Flag for Germany Weather past 2 weeks in Rheinberg, North Rhine-Westphalia, Germany

Now
67 °F

Passing clouds.


Feels Like: 67 °F
Forecast: 49 / 68 °F
Wind: 1 mph from Southeast

Location: Duesseldorf


UV Index: 3 (Moderate)

Visibility: 17 mi


Pressure: 30.10 "Hg

Humidity: 45%

Dew point: 45 °F

Location of RheinbergLocation

Historic Weather in Rheinberg

°F

Rheinberg temperature yesterday

Maximum temperature yesterday: 65 °F (at 6:00 PM)
Minimum temperature yesterday: 43 °F (at 4:00 AM)
Average temperature yesterday: 55 °F

Past Weeks' High & Low Weather Summary

 TemperatureHumidityPressure
High72 °F (Apr 20, 2:00 PM)97% (Apr 12, 8:00 AM)30.47 "Hg (Apr 12, 8:00 AM)
Low30 °F (Apr 16, 5:00 AM)26% (Apr 17, 5:00 PM)29.64 "Hg (Apr 21, 6:00 PM)
Average51 °F67%30.06 "Hg
* Reported Apr 8 1:00 PM — Apr 23 1:00 PM, Rheinberg, Weather by CustomWeather, © 2014

Note: Actual official high and low records may vary slightly from our data, if they occured in-between our weather recording intervals... More about our weather records

Advertising

Historic Weather Conditions — Data for Previous 24 hours

 ConditionsComfort  
Time TempWeatherWind HumidityBarometerVisibility
1:00 PM
Apr 23
65 °FPassing clouds.2 mph50%30.11 "Hg14 mi
12:00 PM64 °FScattered clouds.2 mph57%30.12 "Hg12 mi
11:00 AM61 °FPartly sunny.2 mph63%30.12 "Hg12 mi
10:00 AM57 °FPartly sunny.3 mph74%30.11 "Hg12 mi
9:00 AM54 °FPartly sunny.2 mph81%30.10 "Hg12 mi
8:00 AM51 °FPartly sunny.1 mph88%30.09 "Hg12 mi
7:00 AM46 °FScattered clouds.2 mph95%30.09 "Hg12 mi
6:00 AM45 °FFog.1 mph94%30.07 "Hg19 mi
5:00 AM46 °FFog.1 mph92%30.06 "Hg25 mi
4:00 AM47 °FFog.1 mph91%30.06 "Hg25 mi
3:00 AM50 °FPassing clouds.1 mph89%30.04 "Hg25 mi
2:00 AM51 °FOvercast.1 mph86%30.04 "Hg25 mi
1:00 AM52 °FOvercast.1 mph82%30.03 "Hg25 mi
12:00 AM53 °FOvercast.1 mph79%30.02 "Hg25 mi
11:00 PM
Apr 22
50 °FOvercast.1 mph87%30.00 "Hg25 mi
10:00 PM54 °FOvercast.1 mph75%29.99 "Hg25 mi
9:00 PM56 °FPassing clouds.1 mph67%29.96 "Hg25 mi
8:00 PM59 °FOvercast.1 mph60%29.94 "Hg25 mi
7:00 PM63 °FOvercast.3 mph45%29.92 "Hg25 mi
6:00 PM65 °FPartly sunny.2 mph41%29.91 "Hg22 mi
4:00 PM63 °FPartly sunny.2 mph49%29.91 "Hg22 mi
3:00 PM63 °FOvercast.5 mph47%29.90 "Hg22 mi
2:00 PM62 °FOvercast.5 mph51%29.89 "Hg16 mi
Weather by CustomWeather, © 2014

See weather overview